Barksdale AFB, LA

6:11 AM CST on December 10, 2016 (GMT -0600)
Barksdale Air Force Base

Weather History for KBAD - March, 2013

Change the Weather History Date:

Monday, March 11, 2013

  Actual Average Record
Temperature  
Mean Temperature 46 °F -  
Max Temperature 56 °F 62 °F 87 °F (2006)
Min Temperature 36 °F 44 °F 26 °F (1998)
Degree Days  
Heating Degree Days 19    
Moisture  
Dew Point 28 °F    
Average Humidity 52    
Maximum Humidity 72    
Minimum Humidity 35    
Precipitation  
Precipitation 0.00 in - - ()
Sea Level Pressure  
Sea Level Pressure 30.04 in    
Wind  
Wind Speed 13 mph (NNW)    
Max Wind Speed 18 mph    
Max Gust Speed 21 mph    
Visibility 10 miles    
Events      
Averages and records for this station are not official NWS values.
T = Trace of Precipitation, MM = Missing Value Source: NWS Daily Summary

Daily Weather History Graph

Daily Weather History Graph

Search for Another Location

Airport or City:

Trip Planner

Search our weather history database for the weather conditions in past years. The results will help you decide how hot, cold, wet, or windy it might be!

Date:

Astronomy

Mar. 11, 2013 Rise Set
Actual Time 7:29 AM CDT 7:19 PM CDT
Civil Twilight 7:05 AM CDT 7:44 PM CDT
Nautical Twilight 6:36 AM CDT 8:12 PM CDT
Astronomical Twilight 6:08 AM CDT 8:41 PM CDT
Moon 7:05 AM CDT (3/11) 7:29 PM CDT (3/11)
Length of Visible Light 12h 39m
Length of Day
11h 50m
Waning Crescent, 0% of the Moon is Illuminated
Mar 11
Waning Crescent
Mar 11
New
Mar 19
First Quarter
Mar 27
Full
Apr 2
Last Quarter

Hourly Weather History & Observations

Time (CDT) Temp. Windchill Dew Point Humidity Pressure Visibility Wind Dir Wind Speed Gust Speed Precip Events Conditions
12:58 AM 44.8 °F 37.1 °F 28.6 °F 53% 30.04 in 10.0 mi WNW 18.4 mph - N/A   Scattered Clouds
1:58 AM 43.5 °F 36.4 °F 28.6 °F 56% 30.05 in 10.0 mi NW 15.0 mph - N/A   Clear
2:58 AM 42.4 °F 35.7 °F 29.5 °F 60% 30.04 in 10.0 mi NNW 12.7 mph - N/A   Partly Cloudy
3:58 AM 41.7 °F 33.4 °F 28.0 °F 58% 30.01 in 10.0 mi NNW 17.3 mph - N/A   Partly Cloudy
4:58 AM 40.1 °F 31.0 °F 27.5 °F 61% 30.00 in 10.0 mi NNW 18.4 mph - N/A   Partly Cloudy
5:58 AM 39.0 °F 30.6 °F 27.0 °F 62% 30.00 in 10.0 mi NNW 15.0 mph - N/A   Clear
6:58 AM 36.7 °F 30.5 °F 27.0 °F 68% 30.04 in 10.0 mi NW 8.1 mph - N/A   Clear
7:58 AM 36.7 °F 29.9 °F 26.6 °F 67% 30.05 in 10.0 mi NW 9.2 mph - N/A   Clear
8:58 AM 39.7 °F 32.7 °F 26.8 °F 60% 30.07 in 10.0 mi NNW 11.5 mph - N/A   Clear
9:58 AM 42.1 °F 34.9 °F 27.1 °F 55% 30.08 in 10.0 mi NNW 13.8 mph - N/A   Clear
10:42 AM 42.8 °F 35.8 °F 28.4 °F 57% 30.08 in 10.0 mi NW 13.8 mph 20.7 mph N/A   Clear
10:58 AM 43.9 °F 37.9 °F 27.7 °F 53% 30.09 in 10.0 mi NNW 11.5 mph 19.6 mph N/A   Clear
11:58 AM 47.5 °F - 29.1 °F 49% 30.08 in 10.0 mi NW 10.4 mph 18.4 mph N/A   Clear
12:58 PM 49.6 °F - 28.4 °F 44% 30.07 in 10.0 mi North 10.4 mph - N/A   Partly Cloudy
1:58 PM 51.8 °F - 29.1 °F 42% 30.04 in 10.0 mi NNW 9.2 mph - N/A   Clear
2:07 PM 51.8 °F - 28.4 °F 41% 30.02 in 10.0 mi NNW 15.0 mph - N/A   Clear
2:58 PM 54.5 °F - 28.6 °F 37% 30.01 in 10.0 mi NNW 12.7 mph - N/A   Clear
3:58 PM 56.1 °F - 29.3 °F 36% 29.99 in 10.0 mi NNW 12.7 mph 18.4 mph N/A   Clear
4:58 PM 56.7 °F - 29.5 °F 35% 29.99 in 10.0 mi NNW 10.4 mph 17.3 mph N/A   Clear
5:58 PM 56.1 °F - 29.3 °F 36% 29.99 in 10.0 mi NNW 12.7 mph - N/A   Clear
6:58 PM 53.2 °F - 29.8 °F 41% 30.00 in 10.0 mi NNW 12.7 mph - N/A   Clear
7:58 PM 49.1 °F - 26.6 °F 42% 30.03 in 10.0 mi NW 9.2 mph - N/A   Clear
8:58 PM 46.8 °F - 27.3 °F 47% 30.05 in 10.0 mi NNW 3.5 mph - N/A   Clear
9:58 PM 44.8 °F - 29.3 °F 55% 30.06 in 10.0 mi Calm Calm - N/A   Clear
10:58 PM 40.8 °F - 30.0 °F 65% 30.08 in 10.0 mi Calm Calm - N/A   Clear
11:58 PM 38.7 °F - 30.2 °F 72% 30.09 in 10.0 mi Calm Calm - N/A   Clear